Location: Unspecified
(0.0000°N, 0.0000°E)
Time: 18:02:44
(UTC+00:00)

Vanguard 1 Rocket - Pass Details

Date: 08 December 2017
Orbit: 655 x 4223 km, 34.3° (Epoch: 19 April)

Event Time Altitude Azimuth Distance (km) Brightness Sun altitude
Rises 01:10:00 0° 312° (NW) 8,271 - -60.4°
Reaches altitude 10° 01:15:45 10° 315° (NW) 7,380 - -59.5°
Maximum altitude 01:41:56 67° 35° (NE) 3,851 - -54.9°
Exits shadow 01:44:30 64° 64° (ENE) 3,761 10.2 -54.4°
Drops below altitude 10° 01:58:55 10° 115° (ESE) 5,159 11.7 -51.6°
Sets 02:02:03 0° 117° (ESE) 5,797 12.1 -51.0°
